Weather History for Casper, WY

Change the Weather History Date:

Tuesday, January 29, 2013

  Actual Average Record
Temperature  
Mean Temperature 13 °F 25 °F  
Max Temperature 27 °F 35 °F 53 °F (1971)
Min Temperature -2 °F 14 °F -28 °F (1980)
Degree Days  
Heating Degree Days 52 40  
Month to date heating degree days 1143 1165  
Since 1 July heating degree days 3866 4294  
Cooling Degree Days 0 0  
Month to date cooling degree days 0 0  
Year to date cooling degree days 0 0  
Moisture  
Dew Point 6 °F    
Average Humidity 67    
Maximum Humidity 84    
Minimum Humidity 50    
Precipitation  
Precipitation T in 0.02 in 0.18 in (1994)
Month to date precipitation 0.26 0.48  
Year to date precipitation 0.26 0.48  
Snow  
Snow T in 0.30 in - ()
Month to date snowfall 4.2 8.5  
Since 1 July snowfall 22.9 39.0  
Snow Depth 1.00 in    
Sea Level Pressure  
Sea Level Pressure 29.96 in    
Wind  
Wind Speed 12 mph (West)    
Max Wind Speed 22 mph    
Max Gust Speed 28 mph    
Visibility 9 miles    
Events Snow    
T = Trace of Precipitation, MM = Missing Value Source: NWS Daily Summary

Daily Weather History Graph

Daily Weather History Graph

Search for Another Location

Airport:

Trip Planner

Search our weather history database for the weather conditions in past years. The results will help you decide how hot, cold, wet, or windy it might be!

Date:

Astronomy

Jan. 29, 2013 Rise Set
Actual Time 7:23 AM MST 5:15 PM MST
Civil Twilight 6:53 AM MST 5:45 PM MST
Nautical Twilight 6:19 AM MST 6:19 PM MST
Astronomical Twilight 5:45 AM MST 6:52 PM MST
Moon 8:20 PM MST (1/29) 8:16 AM MST (1/29)
Length of Visible Light 10h 52m
Length of Day
9h 51m
Waning Gibbous, 93% of the Moon is Illuminated
Jan 29
Waning Gibbous
Feb 3
Last Quarter
Feb 10
New
Feb 17
First Quarter
Feb 25
Full

Hourly Weather History & Observations

Time (MST) Temp. Windchill Dew Point Humidity Pressure Visibility Wind Dir Wind Speed Gust Speed Precip Events Conditions
12:53 AM 10.9 °F -1.8 °F 7.0 °F 84% 29.85 in - WSW 9.2 mph - N/A   Clear
1:53 AM 12.9 °F 1.6 °F 8.1 °F 81% 29.83 in - SW 8.1 mph - N/A   Clear
2:53 AM 12.0 °F 0.5 °F 6.1 °F 77% 29.84 in - WSW 8.1 mph - N/A   Scattered Clouds
3:53 AM 10.9 °F 1.4 °F 3.9 °F 73% 29.82 in - WSW 5.8 mph - N/A   Clear
4:53 AM 12.2 °F -4.8 °F 3.2 °F 67% 29.68 in 10.0 mi SW 17.3 mph - N/A   Clear
5:53 AM 12.0 °F -4.5 °F 3.9 °F 70% 29.83 in 10.0 mi SW 16.1 mph - N/A   Clear
6:53 AM 12.0 °F -2.7 °F 3.0 °F 67% 29.86 in 10.0 mi SW 12.7 mph - N/A   Clear
7:53 AM 12.0 °F -5.1 °F 3.0 °F 67% 29.86 in 10.0 mi SW 17.3 mph - N/A   Clear
8:53 AM 15.1 °F -0.6 °F 5.0 °F 64% 29.88 in 10.0 mi SW 16.1 mph - N/A   Clear
9:53 AM 17.1 °F 3.0 °F 6.1 °F 62% 29.88 in 10.0 mi SW 13.8 mph 23.0 mph N/A   Clear
10:53 AM 19.9 °F 5.7 °F 7.0 °F 57% 29.90 in 10.0 mi SW 16.1 mph 23.0 mph N/A   Clear
11:53 AM 21.9 °F 9.2 °F 8.1 °F 55% 29.89 in 10.0 mi SW 13.8 mph - N/A   Clear
12:53 PM 21.9 °F 9.8 °F 9.0 °F 58% 29.91 in 10.0 mi SW 12.7 mph - N/A   Scattered Clouds
1:53 PM 25.0 °F 16.3 °F 9.0 °F 51% 29.91 in 10.0 mi WNW 8.1 mph - N/A   Clear
2:53 PM 23.0 °F 9.2 °F 12.0 °F 63% 29.95 in 10.0 mi North 17.3 mph - N/A   Mostly Cloudy
3:53 PM 21.9 °F 10.4 °F 12.0 °F 66% 30.00 in 10.0 mi North 11.5 mph - N/A   Overcast
4:35 PM 19.4 °F 6.6 °F 14.0 °F 80% 29.85 in 10.0 mi North 12.7 mph - 0.00 in Snow Light Snow
4:53 PM 19.0 °F 4.0 °F 12.9 °F 77% 30.04 in 10.0 mi NNE 17.3 mph 23.0 mph 0.00 in   Mostly Cloudy
5:53 PM 14.0 °F -1.4 °F 8.1 °F 77% 30.11 in 7.0 mi NNE 15.0 mph - N/A   Mostly Cloudy
6:53 PM 12.0 °F -2.0 °F 5.0 °F 73% 30.17 in 5.0 mi NNE 11.5 mph - N/A   Haze
7:17 PM 12.2 °F -0.2 °F 6.8 °F 79% 29.97 in 5.0 mi East 9.2 mph - N/A   Haze
7:53 PM 10.9 °F -2.6 °F 3.9 °F 73% 30.19 in 5.0 mi NE 10.4 mph - N/A   Haze
8:53 PM 10.0 °F 3.6 °F 3.9 °F 76% 30.21 in - NE 3.5 mph - 0.00 in Snow Light Snow
9:53 PM 9.0 °F -2.2 °F 3.9 °F 80% 30.19 in - NNW 6.9 mph - 0.00 in   Overcast
10:51 PM 8.6 °F -2.6 °F 3.2 °F 79% 29.99 in 7.0 mi NNW 6.9 mph - N/A   Overcast
10:53 PM 3.9 °F -5.3 °F -0.0 °F 84% 30.18 in - North 4.6 mph - N/A   Mostly Cloudy
11:00 PM 1.4 °F - -2.2 °F 85% 29.96 in - Calm Calm - N/A   Scattered Clouds
11:53 PM -0.9 °F -12.7 °F -5.1 °F 83% 30.17 in - West 5.8 mph - N/A   Clear